View from above orbital plane
|
View from above satellite
|
Ground track
|
The orbit data is extracted from the following two-line orbital elements,
1 00059U 60013B 21065.91843867 .00000106 00000-0 24877-4 0 9993
2 00059 28.2496 309.9799 0189157 329.0786 29.8740 13.52982436982012
Epoch (UTC): | 06 March 2021 22:02:33 |
Eccentricity: | 0.0189157 |
inclination: | 28.2496° |
perigee height: | 920 km |
apogee height: | 1202 km |
right ascension of ascending node: | 309.9799° |
argument of perigee: | 329.0786° |
revolutions per day: | 13.52982436 |
mean anomaly at epoch: | 29.8740° |
orbit number at epoch: | 98201 |
The dashed part of the orbit path shows where the satellite is in the earth's shadow,
|
|